Weather History for Sussex, NJ

Change the Weather History Date:

Tuesday, October 9, 2012

  Actual Average Record
Temperature  
Mean Temperature 51 °F -  
Max Temperature 57 °F 65 °F 84 °F (2011)
Min Temperature 45 °F 38 °F 24 °F (2001)
Degree Days  
Heating Degree Days 14    
Growing Degree Days 1 (Base 50)    
Moisture  
Dew Point 47 °F    
Average Humidity 82    
Maximum Humidity 93    
Minimum Humidity 70    
Precipitation  
Precipitation 0.01 in - - ()
Sea Level Pressure  
Sea Level Pressure 30.18 in    
Wind  
Wind Speed 3 mph (NE)    
Max Wind Speed 7 mph    
Max Gust Speed -    
Visibility 10 miles    
Events Rain    
Averages and records for this station are not official NWS values.
T = Trace of Precipitation, MM = Missing Value Source: NWS Daily Summary

Daily Weather History Graph

Daily Weather History Graph

Search for Another Location

Airport:

Trip Planner

Search our weather history database for the weather conditions in past years. The results will help you decide how hot, cold, wet, or windy it might be!

Date:

Astronomy

Oct. 09, 2012 Rise Set
Actual Time 7:04 AM EDT 6:26 PM EDT
Civil Twilight 6:36 AM EDT 6:54 PM EDT
Nautical Twilight 6:04 AM EDT 7:25 PM EDT
Astronomical Twilight 5:32 AM EDT 7:57 PM EDT
Moon 12:34 AM EDT (10/9) 2:55 PM EDT (10/9)
Length of Visible Light 12h 17m
Length of Day
11h 22m
Last Quarter, 37% of the Moon is Illuminated
Oct 9
Last Quarter
Oct 15
New
Oct 21
First Quarter
Oct 29
Full
Nov 6
Last Quarter

Hourly Weather History & Observations

Time (EDT) Temp. Windchill Dew Point Humidity Pressure Visibility Wind Dir Wind Speed Gust Speed Precip Events Conditions
12:53 AM 46.9 °F - 45.0 °F 93% 30.24 in 10.0 mi Calm Calm - N/A   Overcast
1:53 AM 45.0 °F - 43.0 °F 93% 30.24 in 10.0 mi Calm Calm - N/A   Mostly Cloudy
2:53 AM 46.0 °F - 44.1 °F 93% 30.23 in 10.0 mi Calm Calm - N/A   Overcast
4:53 AM 46.9 °F - 43.0 °F 86% 30.23 in 10.0 mi NNE 4.6 mph - N/A   Overcast
5:14 AM 46.4 °F 45.2 °F 42.8 °F 87% 30.22 in 10.0 mi NNE 3.5 mph - N/A   Overcast
5:53 AM 46.9 °F - 44.1 °F 90% 30.22 in 10.0 mi ENE 5.8 mph - 0.00 in Rain Light Rain
6:53 AM 46.9 °F - 43.0 °F 86% 30.23 in 10.0 mi NNE 3.5 mph - 0.00 in   Overcast
7:53 AM 46.9 °F - 44.1 °F 90% 30.23 in 10.0 mi NNE 4.6 mph - N/A   Overcast
8:53 AM 48.9 °F - 44.1 °F 83% 30.23 in 10.0 mi NNE 6.9 mph - N/A   Overcast
9:53 AM 50.0 °F - 44.1 °F 80% 30.23 in 10.0 mi NE 6.9 mph - N/A   Overcast
10:53 AM 53.1 °F - 45.0 °F 74% 30.22 in 10.0 mi ENE 6.9 mph - N/A   Overcast
11:53 AM 54.0 °F - 46.0 °F 75% 30.22 in 10.0 mi NE 5.8 mph - N/A   Overcast
12:53 PM 55.9 °F - 46.9 °F 72% 30.18 in 10.0 mi Variable 6.9 mph - N/A   Overcast
1:28 PM 55.4 °F - 46.4 °F 72% 30.16 in 10.0 mi NE 4.6 mph - N/A   Overcast
1:53 PM 57.0 °F - 48.0 °F 72% 30.16 in 10.0 mi NE 5.8 mph - N/A   Overcast
2:53 PM 57.9 °F - 48.0 °F 70% 30.14 in 10.0 mi NE 4.6 mph - N/A   Overcast
3:53 PM 57.9 °F - 48.9 °F 72% 30.13 in 10.0 mi ENE 5.8 mph - N/A   Overcast
4:53 PM 57.0 °F - 48.9 °F 74% 30.13 in 10.0 mi NE 5.8 mph - N/A   Overcast
5:53 PM 57.0 °F - 50.0 °F 77% 30.13 in 10.0 mi NNE 3.5 mph - N/A   Overcast
6:53 PM 55.9 °F - 50.0 °F 80% 30.12 in 10.0 mi Calm Calm - N/A   Overcast
7:53 PM 55.0 °F - 50.0 °F 83% 30.12 in 10.0 mi ENE 3.5 mph - N/A   Overcast
8:53 PM 55.0 °F - 48.9 °F 80% 30.12 in 10.0 mi NNE 4.6 mph - N/A   Overcast
9:53 PM 54.0 °F - 50.0 °F 86% 30.12 in 10.0 mi Calm Calm - N/A   Overcast
10:07 PM 53.6 °F - 50.0 °F 88% 30.11 in 10.0 mi NE 3.5 mph - N/A   Overcast
10:53 PM 54.0 °F - 50.0 °F 86% 30.11 in 10.0 mi Calm Calm - N/A   Overcast
11:53 PM 54.0 °F - 50.0 °F 86% 30.09 in 9.0 mi NNE 3.5 mph - 0.01 in   Overcast